N2YJJ-2 Weather Reports


Display with metric or nautical units.
time (UTC)temp
F
wind
direction
speed
MPH
gust
MPH
rain 1hr
in
rain 24hr
in
rain mn
in
humidity
%
barometer
mb
20260905111002 58 288 0.0 0.0 0.00 0.02 0.00 99 1019.5
20260905110003 58 288 0.0 0.0 0.00 0.02 0.00 99 1019.6
20260905105003 58 288 0.0 0.0 0.00 0.02 0.00 99 1019.6
20260905104002 58 288 0.0 0.0 0.00 0.02 0.00 99 1019.6
20260905103001 58 288 0.0 0.0 0.00 0.02 0.00 99 1019.6
20260905102001 58 288 0.0 0.0 0.00 0.02 0.00 99 1019.4
20260905101002 58 288 0.0 0.0 0.00 0.02 0.00 99 1019.2
20260905095001 58 288 0.0 0.0 0.00 0.02 0.00 99 1019.2
20260905094002 59 288 0.0 0.0 0.00 0.02 0.00 99 1019.2
20260905093002 59 288 0.0 0.0 0.00 0.02 0.00 99 1019.1
20260905092002 59 288 0.0 0.0 0.00 0.02 0.00 99 1019.0
20260905091001 59 288 0.0 0.0 0.00 0.02 0.00 99 1018.9
20260905090003 59 288 0.0 0.0 0.00 0.02 0.00 99 1018.8
20260905085002 59 288 0.0 0.0 0.00 0.02 0.00 99 1018.6
20260905084001 59 288 0.0 0.0 0.00 0.02 0.00 99 1018.6
20260905083002 60 288 0.0 0.0 0.00 0.02 0.00 99 1018.6
20260905082002 60 288 0.0 0.0 0.00 0.02 0.00 98 1018.5
20260905081003 60 288 0.0 0.0 0.00 0.02 0.00 99 1018.5
20260905075001 60 288 0.0 0.0 0.00 0.02 0.00 99 1018.9
20260905074001 60 288 0.0 0.0 0.00 0.02 0.00 99 1018.9
20260905073003 61 288 0.0 0.0 0.00 0.02 0.00 99 1018.9
20260905072002 61 288 0.0 0.0 0.00 0.02 0.00 98 1018.9
20260905071002 61 288 0.0 0.0 0.00 0.02 0.00 98 1018.8
20260905070002 61 288 0.0 0.0 0.00 0.02 0.00 98 1018.9
20260905064001 61 288 0.0 0.0 0.00 0.02 0.00 98 1018.9
20260905063003 62 288 0.0 0.0 0.00 0.02 0.00 98 1019.0
20260905062002 62 288 0.0 0.0 0.00 0.02 0.00 98 1019.1
20260905061003 62 288 0.0 0.0 0.00 0.02 0.00 98 1019.0
20260905060003 62 288 0.0 0.0 0.00 0.02 0.00 98 1019.0
20260905055003 62 288 0.0 0.0 0.00 0.02 0.00 98 1019.0
20260905053002 63 288 0.0 0.0 0.00 0.02 0.00 98 1019.0
20260905052002 63 288 0.0 0.0 0.00 0.02 0.00 98 1019.1
20260905051002 63 288 0.0 0.0 0.00 0.02 0.00 98 1019.1
20260905050002 63 288 0.0 0.0 0.00 0.02 0.00 98 1019.2
20260905045002 63 288 0.0 0.0 0.00 0.02 0.00 98 1019.1
20260905044002 64 288 0.0 0.0 0.00 0.02 0.00 98 1019.2
20260905043002 64 288 0.0 0.0 0.00 0.02 0.00 98 1019.2
20260905041002 64 288 0.0 0.0 0.00 0.02 0.00 98 1019.1
20260905040003 64 288 0.0 0.0 0.00 0.02 0.00 98 1019.1
20260905035003 64 288 0.0 0.0 0.00 0.02 0.02 98 1019.1
20260905034002 64 288 0.0 0.0 0.00 0.03 0.02 98 1019.1
20260905033003 64 288 0.0 0.0 0.00 0.03 0.02 98 1019.2
20260905032002 64 288 0.0 0.0 0.00 0.03 0.02 97 1019.1
20260905030003 65 288 0.0 0.0 0.00 0.03 0.02 97 1019.1
20260905025002 65 288 0.0 0.0 0.00 0.03 0.02 97 1019.2
20260905024002 65 288 0.0 0.0 0.00 0.03 0.02 97 1019.3
20260905022002 65 288 0.0 0.0 0.00 0.03 0.02 96 1019.2
20260905021003 66 288 0.0 0.0 0.00 0.03 0.02 96 1019.1
20260905020002 66 288 0.0 0.0 0.00 0.03 0.02 95 1019.2
20260905015002 66 288 0.0 0.0 0.00 0.03 0.02 95 1019.3
20260905014002 67 288 0.0 0.0 0.00 0.03 0.02 95 1019.3
20260905010002 68 288 0.0 0.0 0.00 0.03 0.02 93 1019.2
20260905005003 68 288 0.0 0.0 0.00 0.03 0.02 92 1019.1
20260905004003 69 288 0.0 0.0 0.00 0.03 0.02 92 1018.9
20260905003002 69 288 0.0 0.0 0.00 0.03 0.02 92 1019.0
20260905002003 69 288 0.0 0.0 0.00 0.03 0.02 91 1019.0
20260905001003 69 288 0.0 0.0 0.00 0.03 0.02 91 1018.8
20260905000003 70 288 0.0 0.0 0.00 0.03 0.02 90 1018.7
20260904234003 70 288 0.0 0.0 0.00 0.03 0.02 89 1018.7
20260904233003 70 288 0.0 0.0 0.00 0.03 0.02 89 1018.8
20260904232003 71 288 0.0 0.0 0.00 0.03 0.02 88 1018.7
20260904230002 71 288 0.0 0.0 0.00 0.03 0.02 86 1018.5
20260904225003 72 281 0.0 0.0 0.00 0.03 0.02 85 1018.4
20260904224003 72 281 0.0 0.0 0.00 0.03 0.02 85 1018.2
20260904223003 72 280 0.0 0.0 0.00 0.03 0.02 81 1018.0
20260904222003 73 280 0.0 0.0 0.00 0.04 0.02 80 1017.9
20260904221002 73 280 0.0 1.0 0.00 0.04 0.02 81 1017.9
20260904220003 74 280 0.0 2.0 0.00 0.04 0.02 81 1017.9
20260904215002 74 22 0.0 0.0 0.01 0.04 0.02 82 1017.9
20260904214003 74 22 0.0 0.0 0.01 0.04 0.02 81 1017.9
20260904213003 74 22 0.0 0.0 0.01 0.04 0.02 80 1017.8
20260904212002 74 22 0.0 1.0 0.01 0.04 0.02 77 1018.0
20260904211003 75 336 0.0 1.0 0.01 0.04 0.02 77 1018.1
20260904205003 76 336 0.0 1.0 0.00 0.03 0.01 71 1018.2
20260904204003 76 12 0.0 2.0 0.00 0.03 0.01 72 1018.3
20260904203003 77 260 0.0 2.0 0.00 0.03 0.01 73 1018.1
20260904202003 77 339 0.0 2.0 0.00 0.03 0.01 71 1018.4
20260904195003 78 245 1.0 2.0 0.00 0.03 0.01 68 1018.4
20260904194003 78 307 0.0 2.0 0.00 0.04 0.01 72 1018.8
20260904193003 77 271 0.0 2.0 0.00 0.04 0.01 70 1018.9
20260904192003 76 263 0.0 1.0 0.00 0.04 0.01 74 1019.1
20260904191003 76 101 0.0 2.0 0.00 0.04 0.01 73 1019.2
20260904190003 77 0 0.0 3.0 0.00 0.04 0.01 75 1019.4
20260904185003 77 101 0.0 2.0 0.00 0.04 0.01 73 1019.3
20260904184003 77 246 0.0 1.0 0.00 0.04 0.01 73 1019.3
20260904182003 80 43 1.0 3.0 0.00 0.04 0.01 68 1019.4
20260904181003 80 336 1.0 3.0 0.00 0.04 0.01 65 1019.4
20260904180004 80 356 1.0 2.0 0.00 0.04 0.01 68 1019.4
20260904173004 80 39 1.0 3.0 0.00 0.05 0.01 72 1019.8
20260904171003 80 306 1.0 3.0 0.00 0.05 0.01 72 1019.8
20260904170004 80 286 1.0 3.0 0.00 0.05 0.01 73 1019.9
20260904165004 79 330 1.0 3.0 0.00 0.05 0.01 73 1020.0
20260904164003 79 227 0.0 5.0 0.00 0.05 0.01 75 1020.3
20260904163003 79 279 0.0 3.0 0.00 0.05 0.01 78 1020.3
20260904161004 79 259 1.0 3.0 0.00 0.05 0.01 77 1020.4
20260904160004 78 343 0.0 3.0 0.00 0.05 0.01 76 1020.2
20260904153003 79 69 1.0 3.0 0.00 0.06 0.01 76 1019.9
20260904151004 78 42 2.0 3.0 0.00 0.06 0.01 77 1019.9
20260904150004 77 19 1.0 3.0 0.00 0.06 0.01 78 1020.2
20260904144004 76 39 1.0 5.0 0.00 0.06 0.01 79 1019.9
20260904143003 76 322 0.0 3.0 0.00 0.06 0.01 83 1020.0
20260904142004 76 254 1.0 3.0 0.00 0.06 0.01 84 1020.1
20260904141003 75 54 0.0 3.0 0.00 0.06 0.01 85 1020.0
20260904140004 73 50 1.0 2.0 0.00 0.06 0.01 86 1020.1
20260904135003 72 257 1.0 2.0 0.00 0.06 0.01 90 1020.1
20260904134004 71 257 1.0 2.0 0.00 0.06 0.01 90 1020.1
20260904132005 70 257 0.0 3.0 0.00 0.06 0.01 94 1020.4
20260904131004 70 247 0.0 1.0 0.00 0.06 0.01 96 1020.1
20260904130005 68 247 0.0 3.0 0.00 0.06 0.01 98 1020.2
20260904125006 68 247 0.0 0.0 0.01 0.06 0.01 100 1020.1
20260904124005 67 247 0.0 0.0 0.01 0.06 0.01 100 1020.3
20260904123005 65 247 0.0 0.0 0.01 0.06 0.01 100 1020.3
20260904122006 64 247 1.0 2.0 0.01 0.07 0.01 100 1020.2
20260904121006 64 226 0.0 2.0 0.01 0.07 0.01 99 1020.2
20260904115005 63 141 0.0 0.0 0.00 0.06 0.00 100 1020.0
20260904114005 62 141 0.0 0.0 0.00 0.06 0.00 100 1019.9
20260904112005 61 141 0.0 0.0 0.00 0.06 0.00 98 1019.9